Regional Weather Roundup
Issued by NWS

Home | Current Version | Previous Version | Graphics & Text | Print | Product List | Glossary On
Versions: 1 2 3 4 5 6 7 8 9 10 11 12 13 14 15 16 17 18 19 20 21 22 23 24 25 26 27
000
ASUS45 KCYS 240710
RWRWY

WYOMING REGIONAL WEATHER ROUNDUP
NATIONAL WEATHER SERVICE CHEYENNE WY
1200 AM MST FRI FEB 24 2017

NOTE:  "FAIR" INDICATES FEW OR NO CLOUDS BELOW 12,000 FEET
WITH NO SIGNIFICANT WEATHER AND/OR OBSTRUCTIONS TO VISIBILITY.

WYZ001-240800-
YELLOWSTONE NATIONAL PARK

CITY           SKY/WX    TMP DP  RH WIND       PRES   REMARKS
LK YELLOWSTONE   N/A      7   5  91 CALM      29.75R
W YELLOWSTONE  NOT AVBL

$$
WYZ002>013-054>058-071-098>099-240800-
NORTHERN WYOMING

CITY           SKY/WX    TMP DP  RH WIND       PRES   REMARKS
JACKSON        CLOUDY    18  18 100 SW5       29.77R WCI  11
CODY           FAIR      19  14  81 CALM      29.89S
GREYBULL       LGT SNOW  26  23  88 W8        29.90S FOG     WCI  18
WORLAND        LGT SNOW  24  23  96 SW8       29.91R VSB 1   WCI  15
SHERIDAN       CLOUDY    23  20  88 MISG      29.95S
BUFFALO        LGT SNOW  22  17  81 CALM      29.92S
GILLETTE       CLOUDY    24  20  84 NE5       29.93  WCI  18
HULETT         FLURRIES  23  21  93 MISG      29.95S
NEWCASTLE      LGT SNOW  23  23 100 N6        29.94S WCI  16

$$
WYZ014>020-022>026-101>103-240800-
CENTRAL WYOMING

CITY           SKY/WX    TMP DP  RH WIND       PRES   REMARKS
BIG PINEY      LGT SNOW  17  14  88 SW18      29.76S WCI   1
PINEDALE       LGT SNOW  18  16  93 CALM      29.77S
DUBOIS         LGT SNOW  14  12  92 SE9       29.76R WCI   2
LANDER         LGT SNOW  19  16  88 CALM      29.85R VSB 3/4
RIVERTON       LGT SNOW  18  17  96 E5        29.85S FOG     WCI  11
CASPER         CLOUDY    15  13  91 NE10      29.85S WCI   2
DOUGLAS        LGT SNOW  17  14  88 CALM      29.90S FOG

$$
WYZ021-027>030-104>119-240800-
SOUTHERN WYOMING

CITY           SKY/WX    TMP DP  RH WIND       PRES   REMARKS
EVANSTON       LGT SNOW  17  12  80 W8        29.77S WCI   7
FORT BRIDGER   LGT SNOW  19  19 100 SW8       29.80S WCI   8
ROCK SPRINGS   LGT SNOW  17  13  84 N7        29.77R FOG     WCI   8
DIXON            N/A     20  14  76 SW13G20   29.75R WCI   7
RAWLINS        LGT SNOW  13   8  81 NE20      29.71S VSB 1   WCI  -5
SARATOGA       CLOUDY    16   9  73 SE12      29.69S WCI   3
LARAMIE        CLOUDY    10   6  84 CALM      29.73F
CHEYENNE       LGT SNOW  13   9  84 N9        29.80S FOG     WCI   1
TORRINGTON     LGT SNOW  21  18  88 NE12      29.89S FOG     WCI   9
PINE BLUFFS    CLOUDY    19  18  93 N13G21    29.84S WCI   7

$$




USA.gov is the U.S. government's official web portal to all federal, state and local government web resources and services.